20040129,000029,2005051,33.851333,-120.120500,NaN,13.593,33.023,39.433,  NaN,0.0, NaN, NaN, NaN, NaN, NaN,319.224,13.40,1018.08,77.80,NaN,204.0,NaN,11.0,NaN,309.5,NaN,15.8,NaN,NaN, NaN,NaN,114.0,NaN,NaN,NaN,2,10.1,000028,   NaN,113.7,     NaN,      NaN,NaN,5.6,NaN,13.597, NaN,NaN,NaN, NaN, NaN

20040129,000059,2005081,33.850667,-120.119000,NaN,13.605,33.030,39.451,  NaN,0.0, NaN, NaN, NaN, NaN, NaN,318.992,13.40,1018.23,77.40,NaN,196.0,NaN,8.8,NaN,307.4,NaN,14.0,NaN,NaN, NaN,NaN,120.0,NaN,NaN,NaN,2,10.5,000058,   NaN,117.4,     NaN,      NaN,NaN,5.8,NaN,13.608, NaN,NaN,NaN, NaN, NaN

20040129,000128,2005110,33.850000,-120.117500,NaN,13.597,33.031,39.444,  NaN,0.0, NaN, NaN, NaN, NaN, NaN,318.768,13.50,1018.16,76.90,NaN,199.0,NaN,10.0,NaN,307.1,NaN,15.2,NaN,NaN, NaN,NaN,119.0,NaN,NaN,NaN,2,10.5,000088,   NaN,114.0,     NaN,      NaN,NaN,5.9,NaN,13.601, NaN,NaN,NaN, NaN, NaN

20040129,000158,2005140,33.849333,-120.115833,NaN,13.596,33.031,39.443,  NaN,0.0, NaN, NaN, NaN, NaN, NaN,318.730,13.40,1018.27,77.30,NaN,217.0,NaN,8.7,NaN,314.4,NaN,13.4,NaN,NaN, NaN,NaN,119.0,NaN,NaN,NaN,2,10.3,000118,   NaN,111.4,     NaN,      NaN,NaN,6.4,NaN,13.599, NaN,NaN,NaN, NaN, NaN

20040129,000229,2005171,33.848667,-120.114333,NaN,13.611,33.030,39.457,  NaN,0.0, NaN, NaN, NaN, NaN, NaN,319.062,13.40,1018.12,76.90,NaN,199.0,NaN,9.9,NaN,309.8,NaN,14.9,NaN,NaN, NaN,NaN,118.0,NaN,NaN,NaN,2,10.4,000148,   NaN,117.6,     NaN,      NaN,NaN,5.3,NaN,13.614, NaN,NaN,NaN, NaN, NaN

20040129,000259,2005201,33.848000,-120.112833,NaN,13.623,33.031,39.468,  NaN,0.0, NaN, NaN, NaN, NaN, NaN,319.243,13.50,1018.12,78.20,NaN,195.0,NaN,9.2,NaN,307.5,NaN,14.4,NaN,NaN, NaN,NaN,120.0,NaN,NaN,NaN,2,10.5,000178,   NaN,118.1,     NaN,      NaN,NaN,5.7,NaN,13.626, NaN,NaN,NaN, NaN, NaN

20040129,000329,2005231,33.847333,-120.111333,NaN,13.633,33.031,39.477,  NaN,0.0, NaN, NaN, NaN, NaN, NaN,319.455,13.50,1018.10,77.20,NaN,209.0,NaN,8.7,NaN,315.0,NaN,13.4,NaN,NaN, NaN,NaN,119.0,NaN,NaN,NaN,2,10.0,000208,   NaN,117.6,     NaN,      NaN,NaN,6.0,NaN,13.636, NaN,NaN,NaN, NaN, NaN

20040129,000358,2005260,33.846500,-120.110000,NaN,13.641,33.032,39.486,  NaN,0.0, NaN, NaN, NaN, NaN, NaN,319.490,13.50,1018.25,78.20,NaN,205.0,NaN,7.4,NaN,313.1,NaN,12.4,NaN,NaN, NaN,NaN,119.0,NaN,NaN,NaN,2,10.5,000238,   NaN,118.6,     NaN,      NaN,NaN,6.3,NaN,13.644, NaN,NaN,NaN, NaN, NaN

20040129,000428,2005290,33.845833,-120.108500,NaN,13.645,33.033,39.491,  NaN,0.0, NaN, NaN, NaN, NaN, NaN,319.538,13.50,1018.26,78.70,NaN,215.0,NaN,6.6,NaN,317.9,NaN,11.3,NaN,NaN, NaN,NaN,119.0,NaN,NaN,NaN,2,10.3,000268,   NaN,118.6,     NaN,      NaN,NaN,6.0,NaN,13.649, NaN,NaN,NaN, NaN, NaN

20040129,000459,2005321,33.845167,-120.107000,NaN,13.659,33.034,39.505,  NaN,0.0, NaN, NaN, NaN, NaN, NaN,319.735,13.60,1018.30,77.50,NaN,207.0,NaN,8.3,NaN,311.6,NaN,13.2,NaN,NaN, NaN,NaN,118.0,NaN,NaN,NaN,2,10.0,000298,   NaN,114.8,     NaN,      NaN,NaN,6.2,NaN,13.662, NaN,NaN,NaN, NaN, NaN

20040129,000529,2005351,33.844500,-120.105333,NaN,13.679,33.034,39.523,  NaN,0.0, NaN, NaN, NaN, NaN, NaN,320.119,13.50,1018.42,77.20,NaN,198.0,NaN,8.7,NaN,306.7,NaN,14.0,NaN,NaN, NaN,NaN,117.0,NaN,NaN,NaN,2,10.4,000328,   NaN,115.0,     NaN,      NaN,NaN,6.1,NaN,13.682, NaN,NaN,NaN, NaN, NaN

20040129,000558,2005380,33.843833,-120.103833,NaN,13.709,33.034,39.552,  NaN,0.0, NaN, NaN, NaN, NaN, NaN,320.663,13.50,1018.42,78.20,NaN,215.0,NaN,6.7,NaN,314.6,NaN,11.5,NaN,NaN, NaN,NaN,119.0,NaN,NaN,NaN,2,10.2,000358,   NaN,115.0,     NaN,      NaN,NaN,6.3,NaN,13.712, NaN,NaN,NaN, NaN, NaN

20040129,000628,2005410,33.843167,-120.102333,NaN,13.725,33.036,39.569,  NaN,0.0, NaN, NaN, NaN, NaN, NaN,320.826,13.60,1018.40,78.20,NaN,205.0,NaN,6.3,NaN,309.1,NaN,11.4,NaN,NaN, NaN,NaN,119.0,NaN,NaN,NaN,2,10.5,000388,   NaN,114.3,     NaN,      NaN,NaN,5.7,NaN,13.728, NaN,NaN,NaN, NaN, NaN

20040129,000659,2005441,33.842500,-120.100833,NaN,13.736,33.038,39.581,  NaN,0.0, NaN, NaN, NaN, NaN, NaN,320.917,13.60,1018.32,78.60,NaN,202.0,NaN,6.0,NaN,308.1,NaN,11.0,NaN,NaN, NaN,NaN,117.0,NaN,NaN,NaN,2,10.3,000418,   NaN,117.2,     NaN,      NaN,NaN,6.3,NaN,13.739, NaN,NaN,NaN, NaN, NaN

20040129,000729,2005471,33.841833,-120.099333,NaN,13.739,33.040,39.585,  NaN,0.0, NaN, NaN, NaN, NaN, NaN,320.855,13.50,1018.39,76.40,NaN,203.0,NaN,9.2,NaN,311.2,NaN,14.3,NaN,NaN, NaN,NaN,122.0,NaN,NaN,NaN,2,10.2,000448,   NaN,116.6,     NaN,      NaN,NaN,5.7,NaN,13.742, NaN,NaN,NaN, NaN, NaN

20040129,000759,2005501,33.841167,-120.098000,NaN,13.743,33.040,39.589,  NaN,0.0, NaN, NaN, NaN, NaN, NaN,320.883,13.50,1018.28,76.30,NaN,200.0,NaN,8.3,NaN,308.9,NaN,13.3,NaN,NaN, NaN,NaN,120.0,NaN,NaN,NaN,2,10.1,000478,   NaN,116.5,     NaN,      NaN,NaN,5.9,NaN,13.746, NaN,NaN,NaN, NaN, NaN

20040129,000828,2005530,33.840500,-120.096500,NaN,13.747,33.040,39.594,  NaN,0.0, NaN, NaN, NaN, NaN, NaN,320.958,13.40,1018.39,76.60,NaN,191.0,NaN,8.6,NaN,303.4,NaN,14.1,NaN,NaN, NaN,NaN,119.0,NaN,NaN,NaN,2,10.7,000508,   NaN,115.7,     NaN,      NaN,NaN,5.8,NaN,13.751, NaN,NaN,NaN, NaN, NaN

20040129,000858,2005560,33.839833,-120.094833,NaN,13.751,33.040,39.598,  NaN,0.0, NaN, NaN, NaN, NaN, NaN,321.034,13.50,1018.25,77.80,NaN,199.0,NaN,8.0,NaN,307.0,NaN,13.1,NaN,NaN, NaN,NaN,117.0,NaN,NaN,NaN,2,10.2,000538,   NaN,115.7,     NaN,      NaN,NaN,6.0,NaN,13.755, NaN,NaN,NaN, NaN, NaN

20040129,000929,2005591,33.839167,-120.093500,NaN,13.750,33.041,39.597,  NaN,0.0, NaN, NaN, NaN, NaN, NaN,320.943,13.50,1018.25,78.20,NaN,204.0,NaN,7.9,NaN,310.7,NaN,12.9,NaN,NaN, NaN,NaN,120.0,NaN,NaN,NaN,2,10.2,000568,   NaN,116.3,     NaN,      NaN,NaN,5.6,NaN,13.753, NaN,NaN,NaN, NaN, NaN

20040129,000959,2005621,33.838500,-120.092000,NaN,13.748,33.041,39.595,  NaN,0.0, NaN, NaN, NaN, NaN, NaN,320.951,13.50,1018.15,78.00,NaN,198.0,NaN,9.4,NaN,308.3,NaN,14.4,NaN,NaN, NaN,NaN,121.0,NaN,NaN,NaN,2,10.0,000598,   NaN,117.3,     NaN,      NaN,NaN,6.0,NaN,13.752, NaN,NaN,NaN, NaN, NaN

20040129,001028,2005650,33.837667,-120.090500,NaN,13.754,33.041,39.601,  NaN,0.0, NaN, NaN, NaN, NaN, NaN,321.067,13.50,1018.10,77.00,NaN,200.0,NaN,8.0,NaN,307.2,NaN,13.1,NaN,NaN, NaN,NaN,118.0,NaN,NaN,NaN,2,10.4,000628,   NaN,115.3,     NaN,      NaN,NaN,5.8,NaN,13.757, NaN,NaN,NaN, NaN, NaN

20040129,001058,2005680,33.837000,-120.089000,NaN,13.760,33.041,39.607,  NaN,0.0, NaN, NaN, NaN, NaN, NaN,321.155,13.50,1018.14,78.30,NaN,199.0,NaN,7.5,NaN,307.4,NaN,12.7,NaN,NaN, NaN,NaN,119.0,NaN,NaN,NaN,2,10.5,000658,   NaN,116.2,     NaN,      NaN,NaN,5.8,NaN,13.764, NaN,NaN,NaN, NaN, NaN

20040129,001129,2005711,33.836333,-120.087500,NaN,13.765,33.040,39.610,  NaN,0.0, NaN, NaN, NaN, NaN, NaN,321.301,13.50,1018.11,76.90,NaN,201.0,NaN,9.3,NaN,308.0,NaN,14.4,NaN,NaN, NaN,NaN,118.0,NaN,NaN,NaN,2,10.4,000688,   NaN,114.6,     NaN,      NaN,NaN,5.8,NaN,13.768, NaN,NaN,NaN, NaN, NaN

20040129,001159,2005741,33.835667,-120.085833,NaN,13.768,33.040,39.612,  NaN,0.0, NaN, NaN, NaN, NaN, NaN,321.384,13.60,1018.10,77.20,NaN,192.0,NaN,6.5,NaN,307.0,NaN,11.9,NaN,NaN, NaN,NaN,122.0,NaN,NaN,NaN,2,10.7,000718,   NaN,120.3,     NaN,      NaN,NaN,6.2,NaN,13.771, NaN,NaN,NaN, NaN, NaN

20040129,001229,2005771,33.834833,-120.084333,NaN,13.766,33.041,39.611,  NaN,0.0, NaN, NaN, NaN, NaN, NaN,321.299,13.60,1018.16,76.80,NaN,197.0,NaN,7.3,NaN,306.9,NaN,12.5,NaN,NaN, NaN,NaN,120.0,NaN,NaN,NaN,2,10.4,000748,   NaN,116.7,     NaN,      NaN,NaN,6.3,NaN,13.769, NaN,NaN,NaN, NaN, NaN

20040129,001258,2005800,33.834167,-120.082833,NaN,13.773,33.040,39.617,  NaN,0.0, NaN, NaN, NaN, NaN, NaN,321.500,13.60,1018.08,77.80,NaN,199.0,NaN,8.8,NaN,305.3,NaN,13.9,NaN,NaN, NaN,NaN,116.0,NaN,NaN,NaN,2,10.3,000778,   NaN,113.6,     NaN,      NaN,NaN,6.1,NaN,13.777, NaN,NaN,NaN, NaN, NaN

20040129,001328,2005830,33.833500,-120.081333,NaN,13.785,33.040,39.628,  NaN,0.0, NaN, NaN, NaN, NaN, NaN,321.732,13.60,1018.17,77.90,NaN,195.0,NaN,8.8,NaN,302.9,NaN,14.1,NaN,NaN, NaN,NaN,118.0,NaN,NaN,NaN,2,10.6,000808,   NaN,113.6,     NaN,      NaN,NaN,6.4,NaN,13.788, NaN,NaN,NaN, NaN, NaN

20040129,001359,2005861,33.832833,-120.079833,NaN,13.784,33.040,39.628,  NaN,0.0, NaN, NaN, NaN, NaN, NaN,321.666,13.50,1018.12,77.30,NaN,194.0,NaN,7.7,NaN,303.9,NaN,13.1,NaN,NaN, NaN,NaN,117.0,NaN,NaN,NaN,2,10.8,000838,   NaN,116.3,     NaN,      NaN,NaN,5.7,NaN,13.787, NaN,NaN,NaN, NaN, NaN

20040129,001429,2005891,33.832167,-120.078167,NaN,13.786,33.040,39.629,  NaN,0.0, NaN, NaN, NaN, NaN, NaN,321.776,13.60,1018.25,77.80,NaN,194.0,NaN,7.6,NaN,302.3,NaN,13.0,NaN,NaN, NaN,NaN,118.0,NaN,NaN,NaN,2,10.5,000868,   NaN,113.2,     NaN,      NaN,NaN,5.7,NaN,13.789, NaN,NaN,NaN, NaN, NaN

20040129,001458,2005920,33.831667,-120.076667,NaN,13.803,33.038,39.643,  NaN,0.0, NaN, NaN, NaN, NaN, NaN,322.220,13.60,1018.18,76.50,NaN,208.0,NaN,8.7,NaN,311.4,NaN,13.5,NaN,NaN, NaN,NaN,115.0,NaN,NaN,NaN,2,10.1,000898,   NaN,113.8,     NaN,      NaN,NaN,6.2,NaN,13.806, NaN,NaN,NaN, NaN, NaN

20040129,001528,2005950,33.831000,-120.075167,NaN,13.802,33.040,39.644,  NaN,0.0, NaN, NaN, NaN, NaN, NaN,322.081,13.60,1018.06,77.20,NaN,193.0,NaN,7.6,NaN,306.4,NaN,12.9,NaN,NaN, NaN,NaN,118.0,NaN,NaN,NaN,2,10.5,000928,   NaN,118.9,     NaN,      NaN,NaN,6.0,NaN,13.805, NaN,NaN,NaN, NaN, NaN

20040129,001559,2005981,33.830167,-120.073667,NaN,13.810,33.038,39.650,  NaN,0.0, NaN, NaN, NaN, NaN, NaN,322.329,13.60,1018.14,77.00,NaN,198.0,NaN,7.2,NaN,307.6,NaN,12.4,NaN,NaN, NaN,NaN,120.0,NaN,NaN,NaN,2,10.4,000958,   NaN,117.0,     NaN,      NaN,NaN,6.1,NaN,13.813, NaN,NaN,NaN, NaN, NaN

20040129,001629,2006011,33.829500,-120.072167,NaN,13.822,33.038,39.661,  NaN,0.0, NaN, NaN, NaN, NaN, NaN,322.558,13.60,1018.04,76.50,NaN,190.0,NaN,7.2,NaN,304.8,NaN,12.6,NaN,NaN, NaN,NaN,120.0,NaN,NaN,NaN,2,10.8,000988,   NaN,119.7,     NaN,      NaN,NaN,6.0,NaN,13.825, NaN,NaN,NaN, NaN, NaN

20040129,001659,2006041,33.828833,-120.070667,NaN,13.829,33.040,39.669,  NaN,0.0, NaN, NaN, NaN, NaN, NaN,322.597,13.90,1018.19,78.00,NaN,195.0,NaN,6.2,NaN,303.4,NaN,11.6,NaN,NaN, NaN,NaN,119.0,NaN,NaN,NaN,2,10.7,001018,   NaN,115.5,     NaN,      NaN,NaN,5.8,NaN,13.832, NaN,NaN,NaN, NaN, NaN

20040129,001728,2006070,33.828167,-120.069000,NaN,13.837,33.040,39.677,  NaN,0.0, NaN, NaN, NaN, NaN, NaN,322.769,13.70,1018.01,76.00,NaN,196.0,NaN,7.9,NaN,305.0,NaN,13.0,NaN,NaN, NaN,NaN,116.0,NaN,NaN,NaN,2,10.1,001048,   NaN,115.6,     NaN,      NaN,NaN,5.9,NaN,13.841, NaN,NaN,NaN, NaN, NaN

20040129,001758,2006100,33.827500,-120.067500,NaN,13.841,33.040,39.680,  NaN,0.0, NaN, NaN, NaN, NaN, NaN,322.846,13.70,1018.09,77.90,NaN,191.0,NaN,6.9,NaN,304.7,NaN,12.4,NaN,NaN, NaN,NaN,120.0,NaN,NaN,NaN,2,10.7,001078,   NaN,118.0,     NaN,      NaN,NaN,6.0,NaN,13.845, NaN,NaN,NaN, NaN, NaN

20040129,001829,2006131,33.826833,-120.066000,NaN,13.845,33.040,39.684,  NaN,0.0, NaN, NaN, NaN, NaN, NaN,322.855,13.70,1018.12,76.50,NaN,190.0,NaN,6.9,NaN,301.6,NaN,12.3,NaN,NaN, NaN,NaN,119.0,NaN,NaN,NaN,2,10.4,001108,   NaN,115.3,     NaN,      NaN,NaN,5.5,NaN,13.848, NaN,NaN,NaN, NaN, NaN

20040129,001859,2006161,33.826000,-120.064500,NaN,13.846,33.041,39.686,  NaN,0.0, NaN, NaN, NaN, NaN, NaN,322.872,13.70,1018.06,77.30,NaN,191.0,NaN,6.4,NaN,303.9,NaN,11.7,NaN,NaN, NaN,NaN,119.0,NaN,NaN,NaN,2,10.5,001138,   NaN,117.9,     NaN,      NaN,NaN,6.2,NaN,13.850, NaN,NaN,NaN, NaN, NaN

20040129,001928,2006190,33.825333,-120.063000,NaN,13.846,33.041,39.686,  NaN,0.0, NaN, NaN, NaN, NaN, NaN,322.823,13.70,1018.11,77.00,NaN,195.0,NaN,6.3,NaN,302.3,NaN,11.6,NaN,NaN, NaN,NaN,116.0,NaN,NaN,NaN,2,10.4,001168,   NaN,115.0,     NaN,      NaN,NaN,5.9,NaN,13.849, NaN,NaN,NaN, NaN, NaN

20040129,001958,2006220,33.824833,-120.061333,NaN,13.842,33.041,39.682,  NaN,0.0, NaN, NaN, NaN, NaN, NaN,322.770,13.70,1018.01,76.80,NaN,187.0,NaN,6.1,NaN,300.9,NaN,11.5,NaN,NaN, NaN,NaN,116.0,NaN,NaN,NaN,2,10.6,001198,   NaN,118.2,     NaN,      NaN,NaN,6.0,NaN,13.845, NaN,NaN,NaN, NaN, NaN

20040129,002029,2006251,33.824167,-120.059833,NaN,13.840,33.041,39.681,  NaN,0.0, NaN, NaN, NaN, NaN, NaN,322.684,13.70,1018.02,77.40,NaN,196.0,NaN,4.4,NaN,302.9,NaN,9.8,NaN,NaN, NaN,NaN,116.0,NaN,NaN,NaN,2,10.7,001228,   NaN,115.9,     NaN,      NaN,NaN,6.1,NaN,13.844, NaN,NaN,NaN, NaN, NaN

20040129,002059,2006281,33.823500,-120.058333,NaN,13.838,33.041,39.680,  NaN,0.0, NaN, NaN, NaN, NaN, NaN,322.645,13.70,1018.14,77.30,NaN,186.0,NaN,6.3,NaN,300.8,NaN,11.7,NaN,NaN, NaN,NaN,120.0,NaN,NaN,NaN,2,10.4,001258,   NaN,117.6,     NaN,      NaN,NaN,5.6,NaN,13.842, NaN,NaN,NaN, NaN, NaN

20040129,002129,2006311,33.822667,-120.056667,NaN,13.835,33.041,39.677,  NaN,0.0, NaN, NaN, NaN, NaN, NaN,322.588,13.90,1018.14,77.00,NaN,197.0,NaN,6.0,NaN,304.9,NaN,11.0,NaN,NaN, NaN,NaN,118.0,NaN,NaN,NaN,2,9.9,001288,   NaN,116.4,     NaN,      NaN,NaN,6.0,NaN,13.838, NaN,NaN,NaN, NaN, NaN

20040129,002158,2006340,33.822000,-120.055167,NaN,13.833,33.041,39.674,  NaN,0.0, NaN, NaN, NaN, NaN, NaN,322.596,13.90,1018.09,77.70,NaN,195.0,NaN,4.9,NaN,302.1,NaN,10.0,NaN,NaN, NaN,NaN,117.0,NaN,NaN,NaN,2,10.3,001318,   NaN,114.8,     NaN,      NaN,NaN,5.8,NaN,13.837, NaN,NaN,NaN, NaN, NaN

20040129,002228,2006370,33.821500,-120.053667,NaN,13.834,33.040,39.674,  NaN,0.0, NaN, NaN, NaN, NaN, NaN,322.643,13.70,1017.99,76.90,NaN,196.0,NaN,4.7,NaN,302.6,NaN,10.0,NaN,NaN, NaN,NaN,115.0,NaN,NaN,NaN,2,10.7,001348,   NaN,115.2,     NaN,      NaN,NaN,5.9,NaN,13.837, NaN,NaN,NaN, NaN, NaN

20040129,002259,2006401,33.820833,-120.052000,NaN,13.831,33.041,39.672,  NaN,0.0, NaN, NaN, NaN, NaN, NaN,322.560,13.70,1018.17,76.10,NaN,189.0,NaN,6.2,NaN,299.8,NaN,11.5,NaN,NaN, NaN,NaN,117.0,NaN,NaN,NaN,2,10.5,001378,   NaN,115.0,     NaN,      NaN,NaN,6.0,NaN,13.835, NaN,NaN,NaN, NaN, NaN

20040129,002329,2006431,33.820167,-120.050500,NaN,13.826,33.042,39.669,  NaN,0.0, NaN, NaN, NaN, NaN, NaN,322.390,13.70,1018.20,76.80,NaN,189.0,NaN,6.3,NaN,302.3,NaN,11.7,NaN,NaN, NaN,NaN,119.0,NaN,NaN,NaN,2,10.7,001408,   NaN,117.8,     NaN,      NaN,NaN,6.1,NaN,13.830, NaN,NaN,NaN, NaN, NaN

20040129,002358,2006460,33.819500,-120.049000,NaN,13.825,33.040,39.666,  NaN,0.0, NaN, NaN, NaN, NaN, NaN,322.471,13.90,1018.05,77.30,NaN,183.0,NaN,6.2,NaN,301.6,NaN,11.8,NaN,NaN, NaN,NaN,120.0,NaN,NaN,NaN,2,11.0,001438,   NaN,119.2,     NaN,      NaN,NaN,6.1,NaN,13.828, NaN,NaN,NaN, NaN, NaN

20040129,002428,2006490,33.818833,-120.047333,NaN,13.826,33.040,39.667,  NaN,0.0, NaN, NaN, NaN, NaN, NaN,322.511,13.90,1018.11,77.40,NaN,194.0,NaN,6.4,NaN,302.4,NaN,11.6,NaN,NaN, NaN,NaN,117.0,NaN,NaN,NaN,2,10.2,001468,   NaN,114.8,     NaN,      NaN,NaN,5.6,NaN,13.830, NaN,NaN,NaN, NaN, NaN

20040129,002459,2006521,33.818167,-120.045833,NaN,13.826,33.041,39.668,  NaN,0.0, NaN, NaN, NaN, NaN, NaN,322.441,13.90,1018.09,77.20,NaN,188.0,NaN,5.4,NaN,300.4,NaN,11.0,NaN,NaN, NaN,NaN,119.0,NaN,NaN,NaN,2,11.0,001498,   NaN,115.4,     NaN,      NaN,NaN,6.0,NaN,13.830, NaN,NaN,NaN, NaN, NaN

20040129,002529,2006551,33.817500,-120.044333,NaN,13.825,33.041,39.666,  NaN,0.0, NaN, NaN, NaN, NaN, NaN,322.425,13.90,1018.08,78.30,NaN,200.0,NaN,4.4,NaN,302.6,NaN,9.6,NaN,NaN, NaN,NaN,117.0,NaN,NaN,NaN,2,10.3,001528,   NaN,113.6,     NaN,      NaN,NaN,5.4,NaN,13.828, NaN,NaN,NaN, NaN, NaN

20040129,002559,2006581,33.816833,-120.042667,NaN,13.831,33.040,39.671,  NaN,0.0, NaN, NaN, NaN, NaN, NaN,322.634,13.90,1018.10,78.20,NaN,191.0,NaN,7.3,NaN,301.4,NaN,12.4,NaN,NaN, NaN,NaN,116.0,NaN,NaN,NaN,2,10.1,001558,   NaN,115.6,     NaN,      NaN,NaN,5.8,NaN,13.834, NaN,NaN,NaN, NaN, NaN

20040129,002628,2006610,33.816167,-120.041167,NaN,13.832,33.040,39.672,  NaN,0.0, NaN, NaN, NaN, NaN, NaN,322.629,13.90,1017.98,76.80,NaN,191.0,NaN,6.9,NaN,302.5,NaN,12.2,NaN,NaN, NaN,NaN,118.0,NaN,NaN,NaN,2,10.4,001588,   NaN,116.3,     NaN,      NaN,NaN,6.3,NaN,13.835, NaN,NaN,NaN, NaN, NaN

20040129,002658,2006640,33.815500,-120.039667,NaN,13.835,33.041,39.676,  NaN,0.0, NaN, NaN, NaN, NaN, NaN,322.590,14.00,1017.97,77.00,NaN,182.0,NaN,6.0,NaN,299.3,NaN,11.4,NaN,NaN, NaN,NaN,119.0,NaN,NaN,NaN,2,10.7,001618,   NaN,117.9,     NaN,      NaN,NaN,6.0,NaN,13.838, NaN,NaN,NaN, NaN, NaN

20040129,002729,2006671,33.814833,-120.038167,NaN,13.837,33.042,39.679,  NaN,0.0, NaN, NaN, NaN, NaN, NaN,322.554,14.00,1018.03,77.40,NaN,189.0,NaN,6.3,NaN,301.5,NaN,11.7,NaN,NaN, NaN,NaN,118.0,NaN,NaN,NaN,2,10.6,001648,   NaN,116.6,     NaN,      NaN,NaN,6.0,NaN,13.840, NaN,NaN,NaN, NaN, NaN

20040129,002759,2006701,33.814167,-120.036500,NaN,13.835,33.043,39.678,  NaN,0.0, NaN, NaN, NaN, NaN, NaN,322.468,13.90,1017.98,77.30,NaN,195.0,NaN,4.9,NaN,303.3,NaN,10.3,NaN,NaN, NaN,NaN,118.0,NaN,NaN,NaN,2,10.6,001678,   NaN,116.2,     NaN,      NaN,NaN,5.9,NaN,13.838, NaN,NaN,NaN, NaN, NaN

20040129,002828,2006730,33.813333,-120.035000,NaN,13.832,33.044,39.676,  NaN,0.0, NaN, NaN, NaN, NaN, NaN,322.366,13.90,1018.04,77.70,NaN,185.0,NaN,5.1,NaN,300.3,NaN,10.7,NaN,NaN, NaN,NaN,119.0,NaN,NaN,NaN,2,11.0,001708,   NaN,117.9,     NaN,      NaN,NaN,5.8,NaN,13.835, NaN,NaN,NaN, NaN, NaN

20040129,002858,2006760,33.812667,-120.033500,NaN,13.831,33.044,39.675,  NaN,0.0, NaN, NaN, NaN, NaN, NaN,322.322,14.00,1017.94,77.70,NaN,188.0,NaN,6.1,NaN,300.4,NaN,11.4,NaN,NaN, NaN,NaN,118.0,NaN,NaN,NaN,2,10.4,001738,   NaN,116.0,     NaN,      NaN,NaN,6.1,NaN,13.834, NaN,NaN,NaN, NaN, NaN

20040129,002929,2006791,33.812000,-120.031833,NaN,13.831,33.044,39.675,  NaN,0.0, NaN, NaN, NaN, NaN, NaN,322.346,14.00,1017.81,77.90,NaN,200.0,NaN,5.6,NaN,307.5,NaN,10.7,NaN,NaN, NaN,NaN,117.0,NaN,NaN,NaN,2,10.5,001768,   NaN,118.7,     NaN,      NaN,NaN,6.3,NaN,13.834, NaN,NaN,NaN, NaN, NaN

20040129,002959,2006821,33.811333,-120.030333,NaN,13.832,33.043,39.675,  NaN,0.0, NaN, NaN, NaN, NaN, NaN,322.368,14.00,1017.98,77.80,NaN,185.0,NaN,4.1,NaN,295.9,NaN,9.6,NaN,NaN, NaN,NaN,117.0,NaN,NaN,NaN,2,10.5,001798,   NaN,113.7,     NaN,      NaN,NaN,5.8,NaN,13.835, NaN,NaN,NaN, NaN, NaN

20040129,003029,2006851,33.810667,-120.028833,NaN,13.829,33.045,39.674,  NaN,0.0, NaN, NaN, NaN, NaN, NaN,322.213,14.00,1017.89,76.80,NaN,188.0,NaN,5.9,NaN,300.6,NaN,11.3,NaN,NaN, NaN,NaN,118.0,NaN,NaN,NaN,2,10.6,001828,   NaN,115.7,     NaN,      NaN,NaN,6.1,NaN,13.832, NaN,NaN,NaN, NaN, NaN

20040129,003058,2006880,33.810000,-120.027167,NaN,13.826,33.045,39.672,  NaN,0.0, NaN, NaN, NaN, NaN, NaN,322.153,14.00,1017.99,76.60,NaN,183.0,NaN,5.1,NaN,296.9,NaN,10.4,NaN,NaN, NaN,NaN,118.0,NaN,NaN,NaN,2,10.5,001858,   NaN,115.5,     NaN,      NaN,NaN,5.8,NaN,13.829, NaN,NaN,NaN, NaN, NaN

20040129,003128,2006910,33.809333,-120.025667,NaN,13.823,33.044,39.668,  NaN,0.0, NaN, NaN, NaN, NaN, NaN,322.193,13.90,1017.98,77.00,NaN,180.0,NaN,4.6,NaN,297.2,NaN,10.0,NaN,NaN, NaN,NaN,121.0,NaN,NaN,NaN,2,10.5,001888,   NaN,116.2,     NaN,      NaN,NaN,5.9,NaN,13.826, NaN,NaN,NaN, NaN, NaN

20040129,003159,2006941,33.808667,-120.024167,NaN,13.825,33.043,39.668,  NaN,0.0, NaN, NaN, NaN, NaN, NaN,322.281,14.00,1017.93,77.20,NaN,187.0,NaN,5.2,NaN,300.1,NaN,10.5,NaN,NaN, NaN,NaN,118.0,NaN,NaN,NaN,2,10.5,001918,   NaN,116.6,     NaN,      NaN,NaN,6.0,NaN,13.828, NaN,NaN,NaN, NaN, NaN

20040129,003229,2006971,33.808000,-120.022667,NaN,13.822,33.043,39.666,  NaN,0.0, NaN, NaN, NaN, NaN, NaN,322.177,14.00,1018.06,77.70,NaN,176.0,NaN,4.5,NaN,295.9,NaN,10.0,NaN,NaN, NaN,NaN,121.0,NaN,NaN,NaN,2,10.6,001948,   NaN,116.7,     NaN,      NaN,NaN,6.4,NaN,13.825, NaN,NaN,NaN, NaN, NaN

20040129,003258,2007000,33.807333,-120.021000,NaN,13.823,33.043,39.667,  NaN,0.0, NaN, NaN, NaN, NaN, NaN,322.264,14.00,1018.01,77.70,NaN,180.0,NaN,4.5,NaN,295.8,NaN,10.0,NaN,NaN, NaN,NaN,119.0,NaN,NaN,NaN,2,10.5,001978,   NaN,115.3,     NaN,      NaN,NaN,6.2,NaN,13.827, NaN,NaN,NaN, NaN, NaN

20040129,003328,2007030,33.806667,-120.019500,NaN,13.825,33.043,39.669,  NaN,0.0, NaN, NaN, NaN, NaN, NaN,322.302,13.90,1017.86,76.80,NaN,185.0,NaN,3.9,NaN,298.7,NaN,9.4,NaN,NaN, NaN,NaN,117.0,NaN,NaN,NaN,2,10.6,002008,   NaN,116.9,     NaN,      NaN,NaN,5.7,NaN,13.829, NaN,NaN,NaN, NaN, NaN

20040129,003359,2007061,33.806000,-120.018000,NaN,13.833,33.042,39.675,  NaN,0.0, NaN, NaN, NaN, NaN, NaN,322.525,13.90,1017.86,77.90,NaN,181.0,NaN,2.9,NaN,295.9,NaN,8.4,NaN,NaN, NaN,NaN,119.0,NaN,NaN,NaN,2,10.5,002038,   NaN,115.5,     NaN,      NaN,NaN,5.9,NaN,13.837, NaN,NaN,NaN, NaN, NaN

20040129,003429,2007091,33.805333,-120.016500,NaN,13.835,33.041,39.676,  NaN,0.0, NaN, NaN, NaN, NaN, NaN,322.590,13.90,1017.90,78.20,NaN,173.0,NaN,2.7,NaN,294.8,NaN,8.0,NaN,NaN, NaN,NaN,118.0,NaN,NaN,NaN,2,10.3,002068,   NaN,117.8,     NaN,      NaN,NaN,6.1,NaN,13.838, NaN,NaN,NaN, NaN, NaN

20040129,003459,2007121,33.804667,-120.015000,NaN,13.833,33.041,39.674,  NaN,0.0, NaN, NaN, NaN, NaN, NaN,322.598,13.90,1017.98,78.40,NaN,179.0,NaN,4.7,NaN,295.9,NaN,10.1,NaN,NaN, NaN,NaN,117.0,NaN,NaN,NaN,2,10.5,002098,   NaN,115.8,     NaN,      NaN,NaN,6.1,NaN,13.836, NaN,NaN,NaN, NaN, NaN

20040129,003528,2007150,33.804000,-120.013500,NaN,13.832,33.040,39.672,  NaN,0.0, NaN, NaN, NaN, NaN, NaN,322.650,13.90,1017.85,78.30,NaN,173.0,NaN,3.9,NaN,294.5,NaN,9.3,NaN,NaN, NaN,NaN,119.0,NaN,NaN,NaN,2,10.5,002128,   NaN,117.4,     NaN,      NaN,NaN,6.0,NaN,13.836, NaN,NaN,NaN, NaN, NaN

20040129,003558,2007180,33.803167,-120.012000,NaN,13.830,33.040,39.670,  NaN,0.0, NaN, NaN, NaN, NaN, NaN,322.638,13.90,1017.85,78.90,NaN,184.0,NaN,5.2,NaN,296.8,NaN,10.3,NaN,NaN, NaN,NaN,117.0,NaN,NaN,NaN,2,10.0,002158,   NaN,114.8,     NaN,      NaN,NaN,5.8,NaN,13.834, NaN,NaN,NaN, NaN, NaN

20040129,003629,2007211,33.802500,-120.010500,NaN,13.831,33.037,39.669,  NaN,0.0, NaN, NaN, NaN, NaN, NaN,322.799,13.70,1017.88,78.30,NaN,178.0,NaN,4.8,NaN,294.6,NaN,10.0,NaN,NaN, NaN,NaN,118.0,NaN,NaN,NaN,2,10.1,002188,   NaN,115.9,     NaN,      NaN,NaN,5.9,NaN,13.835, NaN,NaN,NaN, NaN, NaN

20040129,003659,2007241,33.801833,-120.008833,NaN,13.835,33.037,39.672,  NaN,0.0, NaN, NaN, NaN, NaN, NaN,322.946,13.70,1017.93,78.40,NaN,176.0,NaN,4.4,NaN,292.8,NaN,9.8,NaN,NaN, NaN,NaN,118.0,NaN,NaN,NaN,2,10.3,002218,   NaN,115.0,     NaN,      NaN,NaN,6.2,NaN,13.839, NaN,NaN,NaN, NaN, NaN

20040129,003728,2007270,33.801167,-120.007333,NaN,13.835,33.037,39.671,  NaN,0.0, NaN, NaN, NaN, NaN, NaN,322.947,13.70,1017.72,78.60,NaN,172.0,NaN,4.1,NaN,296.5,NaN,9.5,NaN,NaN, NaN,NaN,117.0,NaN,NaN,NaN,2,10.7,002248,   NaN,120.0,     NaN,      NaN,NaN,5.5,NaN,13.838, NaN,NaN,NaN, NaN, NaN

20040129,003758,2007300,33.800500,-120.005833,NaN,13.835,33.037,39.672,  NaN,0.0, NaN, NaN, NaN, NaN, NaN,322.946,13.90,1017.84,79.60,NaN,171.0,NaN,4.0,NaN,290.1,NaN,9.3,NaN,NaN, NaN,NaN,117.0,NaN,NaN,NaN,2,10.2,002278,   NaN,113.5,     NaN,      NaN,NaN,5.9,NaN,13.839, NaN,NaN,NaN, NaN, NaN

20040129,003829,2007331,33.799833,-120.004333,NaN,13.838,33.035,39.672,  NaN,0.0, NaN, NaN, NaN, NaN, NaN,323.148,13.70,1017.82,78.20,NaN,178.0,NaN,3.7,NaN,296.7,NaN,9.1,NaN,NaN, NaN,NaN,118.0,NaN,NaN,NaN,2,10.6,002308,   NaN,117.2,     NaN,      NaN,NaN,6.1,NaN,13.841, NaN,NaN,NaN, NaN, NaN

20040129,003859,2007361,33.799167,-120.002833,NaN,13.836,33.035,39.670,  NaN,0.0, NaN, NaN, NaN, NaN, NaN,323.111,13.70,1017.92,78.70,NaN,174.0,NaN,5.9,NaN,291.5,NaN,11.0,NaN,NaN, NaN,NaN,120.0,NaN,NaN,NaN,2,9.9,002338,   NaN,113.9,     NaN,      NaN,NaN,6.3,NaN,13.839, NaN,NaN,NaN, NaN, NaN

20040129,003929,2007391,33.798500,-120.001333,NaN,13.838,33.033,39.670,  NaN,0.0, NaN, NaN, NaN, NaN, NaN,323.248,13.90,1017.86,79.10,NaN,182.0,NaN,5.7,NaN,295.1,NaN,10.8,NaN,NaN, NaN,NaN,116.0,NaN,NaN,NaN,2,9.8,002368,   NaN,114.0,     NaN,      NaN,NaN,5.9,NaN,13.841, NaN,NaN,NaN, NaN, NaN

20040129,003958,2007420,33.797833,-119.999833,NaN,13.842,33.032,39.673,  NaN,0.0, NaN, NaN, NaN, NaN, NaN,323.394,14.00,1017.74,78.60,NaN,174.0,NaN,5.5,NaN,294.1,NaN,10.8,NaN,NaN, NaN,NaN,117.0,NaN,NaN,NaN,2,10.4,002398,   NaN,117.2,     NaN,      NaN,NaN,5.5,NaN,13.845, NaN,NaN,NaN, NaN, NaN
